Location: downtown San Diego
(32.7310°N, 117.1990°W)
Time: 15:00:02
(UTC-07:00)

Cosmos 1633 Rocket - Pass Details

Date: 12 July 2018
Orbit: 608 x 623 km, 82.5° (Epoch: 17 September)

Event Time Altitude Azimuth Distance (km) Brightness Sun altitude
Exits shadow 22:49:58 45° 10° (N) 854 4.0 -27.9°
Drops below altitude 10° 22:53:03 10° 7° (N) 1,995 6.3 -28.2°
Sets 22:55:17 0° 7° (N) 2,903 7.2 -28.5°
